Tracking 32936 objects as of 17-Jan-2026
HD Live streaming from Space Station
objects crossing your sky now

KUIPER-00015

Track KUIPER-00015 now!
10-day predictions
KUIPER-00015 is classified as:


NORAD ID: 63731
Int'l Code: 2025-088H
Perigee: 622.7 km
Apogee: 635.9 km
Inclination: 51.9 °
Period: 97.1 minutes
Semi major axis: 7000 km
RCS: Unknown
Launch date: April 28, 2025
Source: United States (US)
Launch site: AIR FORCE EASTERN TEST RANGE (AFETR)
Your satellite tracking list
Your tracking list is empty




NASA's NSSDC Master Catalog

Two Line Element Set (TLE):
1 63731U 25088H   26016.29853800  .00003590  00000-0  47306-3 0  9993
2 63731  51.9008 351.1850 0009454 261.3263  98.6630 14.82267557 39925
Source of the keplerian elements: AFSPC